Location: İstanbul
(41.0082°N, 28.9784°E)
Time: 21:43:12
(UTC+02:00)

Oscar 11 - Pass Details

Date: 26 October 2021
Orbit: 614 x 623 km, 97.6° (Epoch: 01 December)

Event Time Altitude Azimuth Distance (km) Brightness Sun altitude
Rises 06:34:48 0° 12° (NNE) 2,906 10.6 -10.6°
Reaches altitude 10° 06:37:00 10° 12° (NNE) 1,997 9.7 -10.2°
Maximum altitude 06:41:22 89° 103° (ESE) 628 7.1 -9.4°
Drops below altitude 10° 06:45:42 10° 193° (SSW) 1,986 9.6 -8.6°
Sets 06:47:52 0° 193° (SSW) 2,889 10.5 -8.2°
